QPF
0.00 0.00 0.00 0.00 0.00 0.00 0.00 0.00 0.00 0.00 0.00 0.00 0.00 0.00 0.00 0.00 0.00 0.00 0.00 0.00 0.00 0.00 0.00 0.00 0.00 0.00 0.00 0.00 0.00 0.00 0.00 0.00 0.00 0.00 0.00 0.00 0.00 0.00 0.00 0.00 0.00 0.00 0.00 0.00 0.00
0.00 0.00 0.00 0.00 0.00 0.00 0.00 0.00 0.00 0.00 0.00 0.00 0.00 0.00 0.00 0.00 0.00 0.00 0.00 0.00 0.00 0.00 0.00 0.00 0.00 0.00 0.00 0.00 0.00 0.00 0.00 0.00 0.00 0.00 0.00 0.00 0.00 0.00 0.00 0.00 0.00 0.00 0.00 0.00 0.00
0.00 0.00 0.00 0.00 0.00 0.00 0.00 0.00 0.00 0.00 0.00 0.00 0.00 0.00 0.00 0.00 0.00 0.00 0.00 0.00 0.00 0.00 0.00 0.00 0.00 0.00 0.00 0.00 0.00 0.00 0.00 0.00 0.00 0.00 0.00 0.00 0.00 0.00 0.00 0.00 0.00 0.00 0.00 0.00 0.00
0.00 0.00 0.00 0.00 0.00 0.00 0.00 0.00 0.00 0.00 0.00 0.00 0.00 0.00 0.00 0.00 0.00 0.00 0.00 0.00 0.00 0.00 0.00 0.00 0.00 0.00 0.00 0.00 0.00 0.00 0.00 0.00 0.00 0.00 0.00 0.00 0.00 0.00 0.00 0.00 0.00 0.00 0.00 0.00 0.00
0.00 0.00 0.00 0.00 0.00 0.00 0.00 0.00 0.00 0.00 0.00 0.00 0.00 0.00 0.00 0.00 0.00 0.00 0.00 0.00 0.00 0.00 0.00 0.00 0.00 0.00 0.00 0.00 0.00 0.00 0.00 0.00 0.00 0.00 0.00 0.00 0.00 0.00 0.00 0.00 0.00 0.00 0.00 0.00 0.00
0.00 0.00 0.00 0.00 0.00 0.00 0.00 0.00 0.00 0.00 0.00 0.00 0.00 0.00 0.00 0.00 0.00 0.00 0.00 0.00 0.00 0.00 0.00 0.00 0.00 0.00 0.00 0.00 0.00 0.00 0.00 0.00 0.00 0.00 0.00 0.00 0.00 0.00 0.00 0.00 0.00 0.00 0.00 0.00 0.00
0.00 0.00 0.00 0.00 0.00 0.00 0.00 0.00 0.00 0.00 0.00 0.00 0.00 0.00 0.00 0.00 0.00 0.00 0.00 0.00 0.00 0.00 0.00 0.00 0.00 0.00 0.00 0.00 0.00 0.00 0.00 0.00 0.00 0.00 0.00 0.00 0.00 0.00 0.00 0.00 0.00 0.00 0.00 0.00 0.00
0.00 0.00 0.00 0.00 0.00 0.00 0.00 0.00 0.00 0.00 0.00 0.00 0.00 0.00 0.00 0.00 0.00 0.00 0.00 0.00 0.00 0.00 0.00 0.00 0.00 0.00 0.00 0.00 0.00 0.00 0.00 0.00 0.00 0.00 0.00 0.00 0.00 0.00 0.00 0.00 0.00 0.00 0.00 0.00 0.00
0.00 0.00 0.00 0.00 0.00 0.00 0.00 0.00 0.00 0.00 0.00 0.00 0.00 0.00 0.00 0.00 0.00 0.00 0.00 0.00 0.00 0.00 0.00 0.00 0.00 0.00 0.00 0.00 0.00 0.00 0.00 0.00 0.00 0.00 0.00 0.00 0.00 0.00 0.00 0.00 0.00 0.00 0.00 0.00 0.00
0.00 0.00 0.00 0.00 0.00 0.00 0.00 0.00 0.00 0.00 0.00 0.00 0.00 0.00 0.00 0.00 0.00 0.00 0.00 0.00 0.00 0.00 0.00 0.00 0.00 0.00 0.00 0.00 0.00 0.00 0.00 0.00 0.00 0.00 0.00 0.00 0.00 0.00 0.00 0.00 0.00 0.00 0.00 0.00 0.00
0.00 0.00 0.00 0.00 0.00 0.00 0.00 0.00 0.00 0.00 0.00 0.00 0.00 0.00 0.00 0.00 0.00 0.00 0.00 0.00 0.00 0.00 0.00 0.00 0.00 0.00 0.00 0.00 0.00 0.00 0.00 0.00 0.00 0.00 0.00 0.00 0.00 0.00 0.00 0.00 0.00 0.00 0.00 0.00 0.00
0.00 0.00 0.00 0.00 0.00 0.00 0.00 0.00 0.00 0.00 0.00 0.00 0.00 0.00 0.00 0.00 0.00 0.00 0.00 0.00 0.00 0.00 0.00 0.00 0.00 0.00 0.00 0.00 0.00 0.00 0.00 0.00 0.00 0.00 0.00 0.00 0.00 0.00 0.00 0.00 0.00 0.00 0.00 0.00 0.00
0.00 0.00 0.00 0.00 0.00 0.00 0.00 0.00 0.00 0.00 0.00 0.00 0.00 0.00 0.00 0.00 0.00 0.00 0.00 0.00 0.00 0.00 0.00 0.00 0.00 0.00 0.00 0.00 0.00 0.00 0.00 0.00 0.00 0.00 0.00 0.00 0.00 0.00 0.00 0.00 0.00 0.00 0.00 0.00 0.00
0.00 0.00 0.00 0.00 0.00 0.00 0.00 0.00 0.00 0.00 0.00 0.00 0.00 0.00 0.00 0.00 0.00 0.00 0.00 0.00 0.00 0.00 0.00 0.00 0.00 0.00 0.00 0.00 0.00 0.00 0.00 0.00 0.00 0.00 0.00 0.00 0.00 0.00 0.00 0.00 0.00 0.00 0.00 0.00 0.00
0.00 0.00 0.00 0.00 0.00 0.00 0.00 0.00 0.00 0.00 0.00 0.00 0.00 0.00 0.00 0.00 0.00 0.00 0.00 0.00 0.00 0.00 0.00 0.00 0.00 0.00 0.00 0.00 0.00 0.00 0.00 0.00 0.00 0.00 0.00 0.00 0.00 0.00 0.00 0.00 0.00 0.00 0.00 0.00 0.00
0.00 0.00 0.00 0.00 0.00 0.00 0.00 0.00 0.00 0.00 0.00 0.00 0.00 0.00 0.00 0.00 0.00 0.00 0.00 0.00 0.00 0.00 0.00 0.00 0.00 0.00 0.00 0.00 0.00 0.00 0.00 0.00 0.00 0.00 0.00 0.00 0.00 0.00 0.00 0.00 0.00 0.00 0.00 0.00 0.00
0.00 0.00 0.01 0.00 0.00 0.00 0.00 0.00 0.00 0.00 0.00 0.00 0.00 0.00 0.00 0.00 0.00 0.00 0.00 0.00 0.00 0.00 0.00 0.00 0.00 0.00 0.00 0.00 0.00 0.00 0.00 0.00 0.00 0.00 0.00 0.00 0.00 0.00 0.00 0.00 0.00 0.00 0.00 0.00 0.00
0.00 0.01 0.00 0.00 0.00 0.00 0.00 0.00 0.00 0.00 0.00 0.00 0.00 0.00 0.00 0.00 0.00 0.00 0.00 0.00 0.00 0.00 0.00 0.00 0.00 0.00 0.00 0.00 0.00 0.00 0.00 0.00 0.00 0.00 0.00 0.00 0.00 0.00 0.00 0.00 0.00 0.00 0.00 0.00 0.00
0.01 0.00 0.00 0.00 0.00 0.00 0.00 0.00 0.00 0.00 0.00 0.00 0.00 0.00 0.00 0.00 0.00 0.00 0.00 0.00 0.00 0.00 0.00 0.00 0.00 0.00 0.00 0.00 0.00 0.00 0.00 0.00 0.00 0.00 0.00 0.00 0.00 0.00 0.00 0.00 0.00 0.00 0.00 0.00 0.00
0.00 0.01 0.00 0.00 0.00 0.01 0.00 0.00 0.00 0.00 0.00 0.00 0.00 0.00 0.00 0.00 0.00 0.00 0.00 0.00 0.00 0.00 0.00 0.00 0.00 0.00 0.00 0.00 0.00 0.00 0.00 0.00 0.00 0.00 0.00 0.00 0.00 0.00 0.00 0.00 0.00 0.00 0.00 0.00 0.00
0.02 0.03 0.00 0.00 0.03 0.03 0.00 0.00 0.00 0.00 0.00 0.00 0.00 0.00 0.00 0.00 0.00 0.00 0.00 0.00 0.00 0.00 0.00 0.00 0.00 0.00 0.00 0.00 0.00 0.00 0.00 0.00 0.00 0.00 0.00 0.00 0.00 0.00 0.00 0.00 0.00 0.00 0.00 0.00 0.00
0.03 0.02 0.00 0.01 0.02 0.01 0.00 0.00 0.00 0.00 0.00 0.00 0.00 0.00 0.00 0.00 0.00 0.00 0.00 0.00 0.00 0.00 0.00 0.00 0.00 0.00 0.00 0.00 0.00 0.00 0.00 0.00 0.00 0.00 0.00 0.00 0.00 0.00 0.00 0.00 0.00 0.00 0.00 0.00 0.00
0.02 0.02 0.01 0.05 0.01 0.00 0.00 0.00 0.00 0.00 0.00 0.00 0.00 0.00 0.00 0.00 0.00 0.00 0.00 0.00 0.00 0.00 0.00 0.00 0.00 0.00 0.00 0.00 0.00 0.00 0.00 0.00 0.00 0.00 0.00 0.00 0.00 0.00 0.00 0.00 0.00 0.00 0.00 0.00 0.00
0.03 0.02 0.03 0.05 0.02 0.00 0.00 0.00 0.00 0.00 0.00 0.00 0.00 0.00 0.00 0.00 0.00 0.00 0.00 0.00 0.00 0.00 0.00 0.00 0.00 0.00 0.00 0.00 0.00 0.00 0.00 0.00 0.00 0.00 0.00 0.00 0.00 0.00 0.00 0.00 0.00 0.00 0.00 0.00 0.00
0.02 0.01 0.01 0.01 0.00 0.00 0.00 0.00 0.00 0.00 0.00 0.00 0.00 0.00 0.00 0.00 0.00 0.00 0.00 0.00 0.00 0.00 0.00 0.01 0.00 0.00 0.00 0.00 0.00 0.00 0.00 0.00 0.00 0.00 0.00 0.00 0.00 0.00 0.00 0.00 0.00 0.00 0.00 0.00 0.00
0.01 0.00 0.01 0.01 0.00 0.01 0.00 0.00 0.00 0.00 0.00 0.00 0.00 0.00 0.00 0.00 0.00 0.00 0.00 0.00 0.00 0.00 0.01 0.01 0.00 0.00 0.00 0.00 0.00 0.00 0.00 0.00 0.00 0.00 0.00 0.00 0.00 0.00 0.00 0.00 0.00 0.00 0.00 0.00 0.00
0.01 0.02 0.04 0.01 0.00 0.01 0.00 0.00 0.00 0.00 0.00 0.00 0.00 0.00 0.00 0.00 0.00 0.00 0.00 0.00 0.00 0.00 0.00 0.00 0.00 0.00 0.00 0.00 0.00 0.00 0.00 0.00 0.00 0.00 0.00 0.00 0.00 0.00 0.00 0.00 0.00 0.00 0.00 0.00 0.00
MSLP
1021.50 1021.14 1021.22 1021.08 1020.75 1020.41 1020.33 1019.93 1019.54 1019.15 1018.57 1018.09 1017.57 1016.94 1016.32 1015.94 1015.16 1014.49 1013.38 1011.15 1011.12 1010.75 1010.80 1011.76 1012.03 1012.06 1012.28 1012.48 1012.58 1012.45 1012.30 1011.80 1011.45 1011.34 1010.29 1010.13 1009.98 1009.69 1009.83 1009.78 1009.88 1009.86 1009.91 1010.34 1010.98
1021.56 1021.37 1020.97 1020.78 1020.76 1020.47 1020.05 1019.88 1019.66 1019.29 1018.48 1018.01 1017.54 1016.97 1016.08 1015.65 1014.89 1013.67 1011.26 1010.86 1010.84 1010.71 1010.49 1011.05 1011.51 1011.98 1012.13 1012.41 1012.29 1012.04 1011.80 1011.06 1010.64 1010.47 1010.06 1009.64 1009.96 1009.52 1009.62 1009.52 1009.30 1009.51 1009.84 1010.30 1010.88
1021.47 1021.40 1021.20 1020.81 1020.37 1020.04 1020.04 1019.79 1019.47 1019.33 1018.44 1018.03 1017.44 1017.09 1016.16 1015.34 1014.63 1011.97 1011.17 1010.52 1010.84 1010.65 1010.29 1010.45 1010.95 1011.50 1011.73 1012.19 1011.92 1011.73 1010.96 1010.55 1010.05 1009.89 1009.94 1009.68 1009.59 1009.28 1009.18 1008.69 1008.65 1008.76 1009.11 1010.01 1010.67
1021.54 1021.22 1021.01 1020.84 1020.41 1020.26 1019.73 1019.63 1019.48 1018.49 1018.52 1018.16 1017.38 1016.89 1016.23 1015.17 1013.85 1011.44 1011.24 1010.84 1010.93 1010.81 1010.59 1010.58 1010.76 1011.21 1011.32 1011.46 1011.42 1011.46 1010.42 1010.16 1009.63 1009.42 1009.65 1009.52 1009.21 1009.13 1008.77 1008.05 1008.44 1008.59 1008.96 1009.83 1010.38
1021.47 1021.26 1020.93 1020.54 1020.44 1019.93 1019.69 1019.39 1019.01 1018.39 1018.03 1018.04 1017.47 1017.00 1016.44 1015.18 1012.37 1010.92 1010.95 1011.03 1011.06 1011.03 1010.77 1010.61 1010.54 1010.70 1010.77 1010.84 1011.05 1010.97 1010.15 1009.73 1009.38 1009.34 1009.10 1009.22 1008.78 1008.78 1007.73 1008.33 1008.45 1008.71 1009.14 1009.74 1010.26
1021.42 1021.09 1020.82 1020.53 1019.92 1019.86 1019.42 1019.13 1018.44 1018.15 1017.42 1017.31 1017.37 1017.26 1016.73 1014.81 1010.56 1010.60 1010.96 1010.96 1010.99 1011.02 1010.67 1010.54 1010.27 1009.98 1010.39 1010.42 1010.54 1010.12 1010.00 1009.44 1009.09 1008.87 1008.56 1008.60 1008.44 1008.85 1007.78 1008.12 1008.58 1008.78 1009.27 1009.87 1010.22
1021.29 1020.95 1020.48 1020.19 1020.00 1019.59 1019.11 1018.78 1017.95 1017.27 1016.54 1016.59 1016.81 1016.97 1016.43 1011.99 1010.51 1010.83 1010.99 1010.95 1010.94 1010.95 1010.64 1010.29 1010.14 1010.07 1009.97 1010.24 1010.11 1010.04 1009.96 1009.30 1008.68 1008.45 1008.02 1007.96 1008.15 1007.87 1007.67 1008.50 1008.84 1009.30 1009.77 1010.09 1010.40
1021.19 1020.83 1020.68 1020.14 1019.81 1019.17 1018.66 1018.02 1017.47 1016.70 1015.56 1015.42 1016.21 1016.49 1014.63 1010.91 1010.67 1010.71 1010.67 1010.51 1010.55 1010.81 1010.69 1010.14 1010.05 1010.22 1010.11 1010.04 1010.11 1010.06 1010.10 1009.26 1008.37 1008.09 1007.83 1007.92 1007.23 1007.22 1007.85 1008.55 1008.62 1009.27 1009.96 1010.51 1010.68
1020.96 1020.75 1020.57 1020.23 1019.88 1019.01 1018.17 1017.15 1016.94 1016.39 1015.65 1015.41 1015.98 1015.93 1013.03 1010.46 1010.32 1009.53 1009.97 1009.82 1009.89 1010.36 1010.46 1010.09 1010.17 1010.18 1010.28 1010.27 1010.29 1010.17 1009.55 1009.26 1008.43 1007.98 1007.73 1007.93 1007.20 1006.80 1007.61 1008.15 1008.49 1008.79 1009.47 1010.08 1010.66
1020.80 1020.66 1020.26 1020.13 1019.86 1019.08 1017.91 1016.65 1016.27 1016.32 1016.01 1015.80 1015.59 1015.85 1011.96 1010.58 1009.74 1009.49 1009.64 1009.60 1009.44 1010.02 1010.43 1010.42 1010.31 1010.29 1010.25 1010.07 1009.21 1009.32 1009.52 1009.12 1008.36 1007.96 1007.70 1007.52 1006.91 1006.50 1006.97 1007.41 1007.97 1008.42 1008.88 1009.51 1010.25
1020.61 1020.55 1020.27 1020.10 1019.52 1019.01 1018.22 1017.00 1016.80 1016.80 1016.23 1015.42 1014.71 1013.71 1011.95 1010.97 1009.98 1009.45 1009.24 1009.27 1009.14 1009.64 1009.71 1009.90 1010.02 1009.47 1008.65 1009.00 1009.10 1009.09 1009.13 1008.72 1008.07 1007.82 1007.63 1006.66 1006.50 1006.13 1006.21 1006.84 1007.44 1008.01 1008.37 1009.03 1009.85
1020.36 1020.15 1020.14 1019.91 1019.64 1019.08 1018.63 1018.25 1018.91 1019.00 1016.63 1014.40 1013.26 1012.68 1011.88 1012.05 1011.44 1009.74 1009.29 1009.31 1008.95 1008.91 1009.27 1009.93 1009.09 1008.99 1009.34 1009.44 1009.27 1009.12 1008.83 1008.41 1008.03 1007.81 1007.63 1006.56 1005.98 1005.58 1005.75 1005.84 1006.10 1007.05 1007.63 1008.41 1009.48
1020.12 1020.05 1019.98 1019.58 1019.42 1019.31 1019.37 1019.05 1018.96 1018.56 1017.32 1012.92 1012.06 1011.34 1010.84 1011.07 1010.43 1009.24 1009.53 1008.65 1008.53 1008.65 1008.54 1008.33 1008.33 1008.45 1008.91 1009.12 1009.15 1008.65 1008.43 1008.29 1008.30 1007.91 1007.35 1006.88 1005.70 1005.12 1005.21 1005.60 1005.61 1006.31 1006.74 1007.61 1008.48
1020.06 1020.13 1019.74 1019.48 1019.56 1019.71 1019.28 1018.97 1018.61 1018.38 1016.81 1012.64 1011.17 1010.06 1009.90 1009.98 1009.60 1008.31 1008.19 1008.19 1008.25 1008.13 1008.44 1008.54 1008.07 1008.14 1008.28 1008.23 1008.43 1008.29 1007.88 1008.31 1008.30 1008.44 1007.55 1007.15 1005.32 1005.01 1004.62 1004.54 1004.85 1005.00 1006.08 1006.60 1007.78
1019.88 1020.02 1019.71 1019.88 1019.96 1019.76 1019.27 1018.58 1018.16 1018.01 1015.62 1011.27 1009.93 1008.87 1009.30 1009.50 1008.84 1007.89 1007.71 1007.90 1007.85 1007.88 1008.03 1007.78 1007.61 1007.62 1007.82 1007.72 1008.15 1007.63 1007.71 1007.85 1008.08 1008.26 1008.03 1007.16 1006.48 1004.27 1004.38 1003.77 1003.37 1003.60 1004.88 1005.83 1006.81
1019.62 1019.79 1019.68 1019.83 1020.11 1019.33 1018.95 1018.53 1018.21 1017.28 1013.98 1010.72 1009.38 1009.11 1009.47 1008.97 1008.46 1007.83 1007.73 1007.84 1007.88 1008.22 1007.83 1007.66 1007.41 1007.24 1006.98 1007.18 1007.47 1007.42 1007.80 1008.05 1008.22 1008.29 1007.62 1006.77 1006.30 1003.38 1003.22 1002.80 1002.86 1003.03 1003.65 1004.78 1006.12
1019.20 1019.46 1019.61 1019.64 1019.68 1019.41 1018.80 1018.61 1017.95 1015.99 1012.67 1011.29 1010.17 1009.60 1009.43 1009.13 1008.58 1008.19 1008.00 1008.13 1008.13 1008.33 1007.79 1007.77 1007.26 1006.82 1006.52 1006.88 1007.26 1007.43 1007.67 1007.86 1008.23 1007.97 1006.47 1006.00 1005.71 1003.18 1002.44 1002.22 1002.14 1002.18 1003.04 1003.82 1005.20
1018.89 1019.13 1019.24 1019.33 1019.40 1019.32 1019.08 1018.57 1016.78 1014.26 1012.95 1011.84 1011.06 1010.20 1010.01 1009.99 1009.36 1008.82 1008.60 1008.74 1008.82 1008.42 1007.91 1007.53 1007.20 1006.33 1005.88 1005.86 1006.21 1006.58 1006.84 1006.90 1006.94 1006.83 1006.08 1006.04 1004.51 1002.60 1001.76 1001.64 1001.57 1001.85 1002.45 1002.87 1004.11
1018.73 1019.22 1019.24 1018.80 1019.05 1019.46 1019.37 1017.86 1015.36 1014.36 1013.32 1012.42 1011.57 1011.06 1010.98 1010.77 1010.38 1009.62 1009.67 1009.60 1009.86 1009.41 1008.93 1008.11 1007.20 1005.80 1005.36 1005.07 1005.31 1006.15 1006.45 1006.55 1006.78 1006.82 1006.33 1005.09 1003.96 1002.58 1001.46 1001.03 1001.14 1001.42 1002.01 1002.37 1003.18
1018.88 1019.17 1018.52 1018.17 1018.69 1019.31 1018.99 1016.80 1015.48 1014.45 1013.73 1012.93 1012.44 1012.12 1011.93 1011.85 1011.33 1010.69 1010.40 1010.37 1010.28 1010.00 1009.46 1009.12 1008.28 1006.38 1005.75 1005.19 1005.29 1005.38 1005.83 1006.62 1006.91 1006.32 1005.71 1004.45 1003.76 1002.19 1001.32 1000.75 1000.79 1000.95 1001.45 1002.29 1002.62
1018.81 1018.89 1017.36 1017.47 1018.52 1018.97 1017.93 1016.88 1015.63 1014.62 1014.00 1013.55 1013.17 1012.92 1012.91 1012.84 1012.41 1012.03 1011.50 1011.13 1010.85 1010.50 1009.99 1009.72 1009.14 1007.70 1006.53 1005.86 1005.38 1005.73 1005.75 1005.82 1005.86 1005.74 1004.82 1004.02 1002.86 1001.66 1000.95 1000.45 1000.65 1000.33 1000.79 1001.54 1002.25
1018.49 1018.41 1017.51 1017.43 1018.42 1017.83 1017.14 1016.82 1015.85 1014.95 1014.34 1014.01 1013.89 1013.72 1013.58 1013.39 1013.18 1012.88 1012.23 1011.62 1011.10 1010.97 1010.80 1010.61 1010.01 1009.08 1007.68 1006.51 1006.19 1005.96 1005.97 1005.99 1005.94 1005.49 1005.14 1003.92 1001.70 1001.10 1000.54 1000.48 1000.28 1000.20 1000.29 1001.00 1001.43
1017.95 1017.81 1017.52 1017.47 1016.94 1016.96 1016.92 1016.49 1016.11 1015.50 1014.89 1014.70 1014.36 1014.09 1013.96 1013.78 1013.84 1013.30 1012.77 1012.22 1011.60 1011.50 1011.73 1011.32 1010.73 1009.82 1008.09 1007.17 1006.70 1006.73 1006.85 1006.46 1006.09 1005.69 1004.30 1003.95 1001.89 1000.99 1000.55 1000.41 1000.13 1000.12 999.91 1000.23 1001.18
1017.53 1017.34 1017.07 1016.83 1016.30 1016.34 1016.47 1016.17 1015.76 1015.27 1015.16 1015.15 1014.87 1014.55 1014.30 1014.03 1013.90 1013.76 1013.42 1012.71 1012.15 1012.00 1012.12 1011.90 1011.35 1010.67 1009.76 1009.01 1008.77 1008.24 1007.82 1007.39 1007.36 1005.61 1004.09 1002.33 1002.26 1001.34 1000.63 1000.24 999.81 999.94 999.78 999.82 1000.18
1016.58 1016.04 1015.42 1015.58 1015.50 1015.74 1015.71 1015.42 1015.28 1015.17 1015.00 1014.83 1014.83 1014.60 1014.41 1014.32 1014.26 1014.17 1013.75 1012.90 1012.28 1011.98 1011.70 1011.89 1011.68 1011.38 1010.72 1010.03 1009.07 1008.52 1007.79 1007.05 1006.04 1004.91 1003.67 1002.52 1001.41 1001.04 1000.37 999.99 999.50 999.32 999.38 999.61 999.75
1015.39 1015.26 1015.37 1014.89 1014.67 1015.00 1014.76 1014.55 1014.68 1014.61 1014.58 1014.23 1014.32 1013.92 1014.05 1014.31 1014.04 1013.79 1013.71 1013.50 1013.03 1012.57 1012.31 1012.48 1012.24 1012.00 1011.24 1010.44 1009.51 1008.13 1006.60 1005.88 1004.90 1004.43 1003.26 1002.45 1001.15 1000.68 999.94 999.71 999.63 999.31 999.38 999.48 999.34
1014.58 1014.52 1014.96 1014.36 1014.19 1014.23 1013.65 1013.58 1013.73 1013.78 1013.61 1013.47 1013.48 1013.62 1013.75 1013.76 1013.84 1013.87 1013.81 1013.68 1013.63 1013.62 1013.55 1013.36 1012.96 1012.43 1010.92 1010.08 1009.25 1007.46 1006.08 1005.23 1004.02 1002.92 1001.84 1001.08 1000.74 1000.05 999.73 999.31 999.37 999.12 999.19 999.17 999.16
Thickness
5605 5608 5608 5608 5612 5616 5617 5622 5626 5630 5636 5642 5646 5651 5657 5663 5669 5675 5684 5703 5702 5706 5706 5697 5694 5690 5686 5680 5677 5675 5664 5657 5660 5653 5670 5670 5667 5672 5671 5669 5665 5665 5661 5658 5652
5595 5597 5601 5603 5602 5606 5610 5612 5615 5620 5630 5634 5640 5644 5653 5658 5666 5673 5695 5698 5699 5700 5702 5694 5686 5681 5677 5673 5673 5673 5662 5665 5671 5668 5670 5674 5662 5668 5667 5666 5666 5664 5661 5655 5650
5585 5586 5588 5592 5596 5599 5600 5603 5608 5609 5619 5625 5631 5636 5644 5652 5662 5679 5686 5694 5693 5695 5697 5695 5688 5680 5672 5668 5669 5667 5669 5669 5673 5675 5670 5666 5662 5669 5665 5669 5670 5671 5664 5653 5647
5574 5577 5579 5580 5584 5586 5593 5595 5596 5608 5607 5613 5623 5629 5635 5648 5650 5677 5677 5684 5685 5687 5688 5684 5681 5671 5666 5664 5667 5662 5673 5672 5676 5674 5668 5662 5667 5664 5666 5679 5673 5671 5664 5654 5646
5562 5564 5568 5572 5572 5577 5580 5585 5591 5598 5601 5602 5611 5618 5624 5636 5657 5671 5673 5674 5675 5677 5676 5676 5673 5668 5665 5665 5664 5660 5671 5673 5676 5671 5670 5668 5666 5666 5675 5671 5672 5667 5660 5653 5647
5550 5554 5555 5559 5565 5565 5570 5574 5583 5587 5597 5598 5600 5604 5611 5623 5665 5666 5665 5667 5667 5667 5670 5672 5671 5674 5668 5666 5662 5669 5667 5672 5672 5673 5674 5670 5668 5660 5676 5673 5668 5664 5657 5651 5647
5537 5540 5546 5549 5551 5556 5560 5564 5575 5584 5592 5593 5593 5595 5600 5640 5655 5655 5656 5657 5659 5660 5662 5668 5669 5667 5671 5661 5667 5664 5658 5665 5670 5671 5674 5674 5666 5665 5675 5666 5663 5657 5651 5648 5643
5524 5528 5530 5536 5541 5548 5552 5557 5565 5575 5588 5591 5587 5587 5604 5640 5643 5646 5647 5653 5655 5654 5655 5662 5663 5660 5663 5664 5660 5654 5650 5651 5664 5667 5670 5671 5663 5672 5667 5662 5663 5655 5648 5641 5638
5514 5515 5517 5522 5527 5537 5545 5554 5557 5564 5574 5579 5578 5580 5605 5632 5635 5645 5645 5647 5649 5648 5648 5654 5652 5651 5653 5648 5645 5643 5644 5642 5653 5663 5665 5661 5663 5678 5667 5662 5660 5658 5650 5643 5637
5502 5502 5507 5509 5513 5522 5535 5546 5551 5554 5559 5564 5570 5570 5606 5619 5628 5634 5636 5637 5640 5637 5636 5635 5637 5637 5638 5644 5643 5641 5633 5637 5647 5657 5657 5655 5662 5672 5670 5667 5664 5660 5656 5648 5640
5492 5492 5495 5497 5504 5509 5519 5531 5536 5541 5546 5559 5570 5578 5592 5604 5616 5622 5627 5628 5632 5629 5625 5629 5625 5628 5651 5650 5646 5643 5636 5641 5651 5653 5651 5661 5660 5669 5674 5666 5661 5658 5657 5650 5642
5483 5485 5485 5488 5491 5497 5503 5511 5505 5505 5531 5555 5565 5573 5584 5582 5587 5605 5615 5613 5618 5620 5619 5614 5617 5637 5636 5635 5638 5637 5636 5642 5649 5647 5645 5656 5662 5672 5668 5673 5674 5665 5660 5654 5644
5471 5473 5474 5480 5482 5484 5485 5491 5493 5498 5516 5563 5566 5573 5582 5581 5588 5599 5600 5610 5612 5610 5616 5619 5626 5630 5628 5626 5625 5633 5635 5639 5636 5638 5646 5646 5658 5668 5671 5667 5671 5667 5669 5660 5652
5456 5458 5463 5469 5472 5470 5476 5480 5486 5491 5511 5554 5565 5572 5579 5581 5584 5602 5601 5606 5605 5609 5609 5606 5623 5622 5623 5626 5628 5622 5642 5634 5630 5624 5626 5642 5641 5658 5671 5674 5669 5676 5665 5665 5655
5441 5443 5450 5452 5455 5460 5468 5474 5481 5487 5520 5558 5564 5576 5576 5578 5586 5598 5602 5598 5600 5606 5608 5608 5614 5616 5615 5622 5622 5631 5636 5630 5627 5620 5620 5634 5630 5661 5657 5670 5683 5683 5673 5667 5662
5426 5429 5434 5439 5442 5453 5459 5465 5473 5493 5505 5545 5561 5564 5563 5573 5581 5591 5593 5596 5598 5594 5603 5605 5615 5617 5621 5624 5623 5629 5625 5620 5616 5615 5610 5631 5632 5661 5665 5675 5678 5683 5681 5673 5663
5412 5414 5419 5424 5431 5440 5448 5455 5475 5480 5526 5535 5543 5553 5559 5562 5573 5578 5581 5579 5582 5578 5587 5598 5605 5616 5623 5613 5616 5619 5614 5603 5597 5598 5619 5634 5623 5660 5673 5678 5681 5689 5684 5679 5669
5394 5398 5406 5411 5416 5426 5432 5447 5463 5499 5509 5523 5529 5541 5547 5549 5559 5566 5571 5571 5573 5580 5584 5584 5585 5607 5620 5621 5614 5613 5616 5606 5599 5607 5625 5618 5626 5661 5678 5682 5686 5686 5685 5686 5673
5378 5380 5389 5397 5402 5409 5416 5429 5475 5481 5500 5507 5519 5528 5531 5536 5545 5554 5555 5557 5557 5564 5570 5575 5583 5609 5615 5624 5624 5607 5598 5623 5603 5595 5603 5621 5637 5662 5678 5682 5684 5685 5682 5683 5677
5363 5363 5379 5384 5391 5394 5402 5436 5451 5468 5479 5494 5504 5509 5512 5517 5528 5537 5542 5547 5549 5553 5561 5563 5566 5595 5603 5614 5615 5613 5615 5597 5594 5592 5595 5616 5622 5648 5665 5675 5680 5684 5682 5678 5679
5351 5352 5374 5376 5377 5381 5396 5416 5437 5457 5468 5477 5485 5495 5492 5498 5508 5514 5524 5533 5537 5542 5550 5551 5556 5575 5592 5595 5600 5599 5600 5604 5607 5601 5607 5607 5621 5655 5669 5677 5675 5686 5684 5681 5678
5341 5344 5362 5367 5364 5381 5393 5407 5429 5440 5454 5462 5469 5475 5480 5486 5488 5500 5511 5519 5525 5531 5530 5538 5541 5549 5570 5588 5596 5599 5596 5600 5590 5598 5594 5604 5626 5658 5669 5668 5674 5681 5684 5683 5683
5335 5341 5348 5353 5367 5375 5388 5400 5412 5424 5435 5444 5453 5464 5469 5476 5478 5481 5492 5506 5513 5518 5515 5525 5529 5537 5566 5579 5582 5579 5581 5590 5593 5594 5600 5591 5613 5651 5660 5662 5668 5672 5683 5684 5676
5328 5334 5343 5353 5367 5375 5378 5391 5401 5418 5424 5428 5436 5447 5456 5462 5468 5469 5474 5487 5495 5502 5506 5513 5519 5528 5538 5545 5548 5553 5562 5568 5565 5583 5597 5607 5611 5631 5649 5655 5668 5668 5673 5679 5678
5325 5340 5354 5355 5365 5371 5381 5392 5396 5404 5416 5421 5424 5434 5441 5445 5450 5454 5462 5479 5492 5499 5503 5506 5507 5514 5523 5530 5539 5546 5555 5562 5570 5584 5588 5608 5615 5624 5646 5652 5666 5669 5670 5671 5676
5326 5336 5342 5358 5366 5368 5374 5387 5394 5399 5409 5415 5417 5429 5434 5433 5443 5449 5459 5464 5474 5484 5490 5490 5491 5490 5499 5512 5523 5536 5559 5570 5575 5579 5585 5594 5606 5625 5639 5650 5651 5658 5660 5663 5669
5330 5336 5336 5354 5361 5361 5377 5388 5389 5400 5410 5419 5419 5422 5427 5426 5436 5443 5449 5455 5459 5457 5458 5468 5470 5475 5505 5510 5514 5525 5551 5558 5574 5588 5597 5593 5608 5621 5624 5638 5643 5652 5652 5656 5664